DateTime,Index
2002092018,0.0
2002092100,0.0
2002092106,1225.0
2002092112,1225.0
2002092118,1600.0
2002092200,2025.0
2002092206,1600.0
2002092212,1600.0
2002092218,1600.0
2002092300,1225.0
2002092306,1225.0
2002092312,1225.0
2002092318,1600.0
2002092400,1600.0
2002092406,2025.0
2002092412,2500.0
2002092418,3025.0
2002092500,3025.0
2002092506,3025.0
2002092512,3600.0
2002092518,4225.0
2002092600,4225.0
2002092606,4900.0
2002092612,5625.0
2002092618,5625.0
2002092700,5625.0
2002092706,5625.0
2002092712,5625.0
2002092718,4900.0
2002092800,4900.0
2002092806,4225.0
2002092812,3600.0
2002092818,2500.0
2002092900,2025.0
2002092906,1600.0
2002092912,1600.0
2002092918,1600.0
2002093000,1600.0
2002093006,1225.0
2002093012,1225.0
2002093018,0.0
2002100100,0.0
2002100106,0.0
2002100112,1225.0
2002100118,1600.0
2002100200,2025.0
2002100206,2025.0
2002100212,2500.0
2002100218,3025.0
2002100300,3025.0
2002100306,3025.0
2002100312,2500.0
2002100318,2025.0
2002100400,2025.0
2002100406,1225.0
2002100412,1225.0
2002100418,1225.0
2002100500,1225.0
2002100506,0.0
2002100512,0.0
2002100518,0.0
2002100600,0.0
2002100606,0.0
2002100612,1225.0
2002100618,1225.0
2002100700,1225.0
2002100706,1225.0
2002100712,1225.0
2002100718,1225.0
2002100800,1225.0
2002100806,1225.0
2002100812,1225.0
2002100818,0.0
2002100900,0.0
2002100906,0.0
2002100912,0.0
2002100918,0.0
2002101000,0.0
2002101006,0.0
2002101012,0.0
2002101018,0.0
2002101100,0.0
2002101106,1225.0
2002101112,1225.0
2002101118,1225.0
2002101200,0.0
2002101206,1600.0
2002101212,1600.0
